Weather Roundup
Issued by NWS

Home | Current Version | Previous Version | Graphics & Text | Print | Product List | Glossary Off
Versions: 1 2 3 4 5 6 7 8 9 10 11 12 13 14 15 16 17 18 19 20 21 22 23 24 25 26 27 28 29 30 31 32 33 34 35 36 37 38 39 40 41 42 43 44 45 46 47 48 49 50

306
NZUS93 KARX 210259
HRRWXR

CURRENT HOURLY OBSERVATIONS ACROSS
MUCH OF THE UPPER MISSISSIPPI VALLEY
NATIONAL WEATHER SERVICE LA CROSSE WI
900 PM CST MON FEB 20 2017


...SOUTHEAST MINNESOTA...


CITY           SKY/WX    TMP DP  RH WIND       PRES   REMARKS
ROCHESTER      CLOUDY    52  52 100 SW18      29.77R
ROCHESTER/MAYO CLOUDY    54  54 100 SW14G24   29.76R
WINONA         LGT RAIN  55  54  94 SW7       29.78R
AUSTIN         CLOUDY    48  46  93 W15G26    29.81R
ALBERT LEA     CLOUDY    46  46 100 W9G21     29.82R
DODGE CENTER   NOT AVBL
PRESTON        CLOUDY    52  51  95 SW13      29.79S FOG
OWATONNA       CLOUDY    48  46  93 W17       29.79R FOG
FARIBAULT      CLOUDY    48  46  93 W21G28    29.79R FOG
$$

...ELSEWHERE IN MINNESOTA...


CITY           SKY/WX    TMP DP  RH WIND       PRES   REMARKS
MINNEAPOLIS    CLOUDY    53  48  83 W21G30    29.71R
INTNL FALLS    LGT RAIN  40  38  93 W14G23    29.55R WCI  32
DULUTH         LGT RAIN  42  42 100 S9        29.59F VSB 1/4
RED WING       CLOUDY    55  52  88 SW10      29.71S
REDWOOD FALLS  CLEAR     41  37  86 W10       29.82R
MANKATO          N/A     44  40  85 W18       29.82R
WORTHINGTON    CLEAR     41  39  93 W9        29.87R
FAIRMONT       CLEAR     46  41  82 W13       29.85R
$$

...SOUTHWEST WISCONSIN...


CITY           SKY/WX    TMP DP  RH WIND       PRES   REMARKS
LA CROSSE      LGT RAIN  56  54  93 S16       29.78S
PRAIRIE DU CHI CLOUDY    55  54  96 SW3       29.84S
BOSCOBEL       CLOUDY    58  56  93 S6        29.84F FOG
LONE ROCK      NOT AVBL
PLATTEVILLE    CLOUDY    55  55 100 S5        29.87R
FORT MC COY    LGT RAIN  55  54  98 S7        29.80F
CAMP DOUGLAS   CLOUDY    57  55  94 S9        29.80S
MAUSTON-NEW LI LGT RAIN  57  55  94 S9        29.82R
VIROQUA        CLOUDY    55  55 100 S15       29.81F
WIS DELLS      RAIN      55  53  93 SW10      29.85R
$$

...ELSEWHERE IN WISCONSIN...


CITY           SKY/WX    TMP DP  RH WIND       PRES   REMARKS
MILWAUKEE      CLOUDY    58  42  55 S20G30    29.91F
MADISON        LGT RAIN  57  52  83 S9        29.86R
GREEN BAY      LGT RAIN  51  46  83 SE20      29.83F
EAU CLAIRE     LGT RAIN  52  51  97 S12       29.69F
BLACK RVR FLS  DRIZZLE   55  55 100 S5        29.77F
MEDFORD        LGT RAIN  47  47  99 S8        29.76F VSB 1/4
WAUSAU         RAIN      47  47 100 S9        29.78R FOG
WIS RAPIDS     LGT RAIN  54  54 100 SW12      29.82R FOG
MARSHFIELD     LGT RAIN  51  50  96 S8        29.77F VSB 3/4
RICE LAKE      LGT RAIN  49  48  97 CALM      29.70F
$$

...NORTHEAST IOWA...


CITY           SKY/WX    TMP DP  RH WIND       PRES   REMARKS
WATERLOO       CLOUDY    55  53  93 SW10      29.84R FOG
DUBUQUE        LGT RAIN  54  54 100 S9        29.88R FOG
DECORAH        CLOUDY    55  54  94 S10G18    29.80S FOG
MASON CITY     CLOUDY    49  46  90 W16       29.86R
CHARLES CITY   CLOUDY    55  55 100 W12       29.84R FOG
OELWEIN        CLOUDY    55  55 100 S16       29.83F FOG
$$

...ELSEWHERE IN IOWA...


CITY           SKY/WX    TMP DP  RH WIND       PRES   REMARKS
DES MOINES     CLOUDY    58  56  93 SW7       29.88R
IOWA CITY      CLOUDY    55  54  96 S5        29.89S FOG
FORT DODGE     CLOUDY    48  43  81 W7        29.90R
MARSHALLTOWN   LGT RAIN  57  56  96 SW13      29.85R
CEDAR RAPIDS   CLOUDY    55  55 100 S5        29.86F
$$

...NORTHERN ILLINOIS...


CITY           SKY/WX    TMP DP  RH WIND       PRES   REMARKS
CHICAGO-OHARE  CLOUDY    60  45  57 S15       29.93F
CHICAGO-MIDWAY CLOUDY    61  44  53 S13G22    29.94F
MOLINE         LGT RAIN  61  56  83 W9        29.88F
ROCKFORD       CLOUDY    61  51  70 S17G25    29.90S
PEORIA         CLOUDY    64  52  64 S9        29.91S
$$

NOTE: "FAIR" INDICATES FEW OR NO CLOUDS BELOW 12,000 FEET WITH NO
SIGNIFICANT WEATHER AND/OR OBSTRUCTIONS TO VISIBILITY. WIND
SPEEDS ARE IN MILES-PER-HOUR.




USA.gov is the U.S. government's official web portal to all federal, state and local government web resources and services.